Tracking 28790 objects as of 18-Apr-2024
HD Live streaming from Space Station
objects crossing your sky now

STARLINK-5091

Track STARLINK-5091 now!
10-day predictions
STARLINK-5091 is classified as:


NORAD ID: 54873
Int'l Code: 2022-177BF
Perigee: 564.4 km
Apogee: 568.1 km
Inclination: 43.0 °
Period: 95.8 minutes
Semi major axis: 6937 km
RCS: Unknown
Launch date: December 28, 2022
Source: United States (US)
Launch site: AIR FORCE EASTERN TEST RANGE (AFETR)
Your satellite tracking list
Your tracking list is empty




NASA's NSSDC Master Catalog

Two Line Element Set (TLE):
1 54873U 22177BF  24109.47353180  .00000186  00000-0  28906-4 0  9997
2 54873  43.0059 270.3519 0002645 274.2589  85.7951 15.02526668 73287
Source of the keplerian elements: AFSPC